Index of /island/2016/05/

NameLast ModifiedSize
UpParent Directory
[TXT]20160501.0053.38.DM.AggressiveII.7787.htm2019-11-05 21:23 108k
[TXT]20160501.0554.23.DM.AloneintheDark.7787.htm2019-11-05 21:23 100k
[TXT]20160501.0607.26.DM.AnotherBrickInDeW00T.7787.htm2019-11-05 21:23 112k
[TXT]20160501.1306.10.DM.AnUphillBattle-se.7787.htm2019-11-05 21:23 64k
[TXT]20160501.1311.56.DM.Bakuretsu-se.7787.htm2019-11-05 21:23 76k
[TXT]20160501.1319.28.DM.BoneMill][st.7787.htm2019-11-05 21:23 64k
[TXT]20160501.1325.17.DM.BorneoSE.7787.htm2019-11-05 21:23 120k
[TXT]20160501.1332.00.DM.Bralta.7787.htm2019-11-05 21:23 68k
[TXT]20160501.1339.19.DM.Cityzen-se.7787.htm2019-11-05 21:23 96k
[TXT]20160501.1346.52.DM.Coke.7787.htm2019-11-05 21:23 172k
[TXT]20160501.1402.23.DM.CrypticSE.7787.htm2019-11-05 21:23 88k
[TXT]20160501.1411.26.DM.Curse][-te.7787.htm2019-11-05 21:23 100k
[TXT]20160501.1422.42.DM.DarkMindII.7787.htm2019-11-05 21:23 68k
[TXT]20160501.1539.00.DM.DeckHalf420.7787.htm2019-11-05 21:23 96k
[TXT]20160501.1545.05.DM.Defiant.7787.htm2019-11-05 21:23 60k
[TXT]20160501.1738.33.DM.Draven.7787.htm2019-11-05 21:23 64k
[TXT]20160501.1743.27.DM.EmpoweredIII.7787.htm2019-11-05 21:23 76k
[TXT]20160501.1749.36.DM.Equilibrium-SE.7787.htm2019-11-05 21:23 72k
[TXT]20160501.1754.46.DM.Fear-se.7787.htm2019-11-05 21:23 64k
[TXT]20160501.1759.45.DM.FoomFlood.7787.htm2019-11-05 21:23 96k
[TXT]20160501.2024.58.DM.ForWhomTheBellTollls.7787.htm2019-11-05 21:23 80k
[TXT]20160501.2105.45.DM.Gris-se.7787.htm2019-11-05 21:23 84k
[TXT]20160501.2353.00.DM.Guardia-SE.7787.htm2019-11-05 21:23 88k
[TXT]20160502.0232.04.DM.HellsGateIII.7787.htm2019-11-05 21:23 80k
[TXT]20160502.1229.10.DM.Liandri.7787.htm2019-11-05 21:23 84k
[TXT]20160502.2313.41.DM.LV-426-se.7787.htm2019-11-05 21:23 64k
[TXT]20160502.2319.28.DM.MadScientistsLair-se.7787.htm2019-11-05 21:23 64k
[TXT]20160502.2325.03.DM.Magma-se.7787.htm2019-11-05 21:23 64k
[TXT]20160502.2329.56.DM.MenaceV3-se.7787.htm2019-11-05 21:23 76k
[TXT]20160502.2335.10.DM.MHMsNexusTriple.7787.htm2019-11-05 21:23 64k
[TXT]20160503.0352.32.DM.MiseryTE.7787.htm2019-11-05 21:23 76k
[TXT]20160503.0358.00.DM.Mojo2013.7787.htm2019-11-05 21:23 76k
[TXT]20160503.0404.14.DM.Nexo-se.7787.htm2019-11-05 21:23 76k
[TXT]20160503.0410.15.DM.Olden-se.7787.htm2019-11-05 21:23 64k
[TXT]20160503.0415.25.DM.Outland-ve.7787.htm2019-11-05 21:23 64k
[TXT]20160503.0420.47.DM.Pier41se.7787.htm2019-11-05 21:23 60k
[TXT]20160503.0425.17.DM.Quartet-se.7787.htm2019-11-05 21:23 68k
[TXT]20160503.1753.13.DM.RadStorm-te.7787.htm2019-11-05 21:23 100k
[TXT]20160503.1802.31.DM.Remorc-se.7787.htm2019-11-05 21:23 76k
[TXT]20160503.1823.05.DM.Revenge-fe.7787.htm2019-11-05 21:23 64k
[TXT]20160503.1829.13.DM.RideTheDragon.7787.htm2019-11-05 21:23 64k
[TXT]20160503.1834.39.DM.Serenity.7787.htm2019-11-05 21:23 76k
[TXT]20160503.1843.54.DM.SleepyTownTE.7787.htm2019-11-05 21:23 96k
[TXT]20160504.0300.09.DM.StalwartXL.7787.htm2019-11-05 21:23 76k
[TXT]20160504.0307.50.DM.SweetNothings-SE.7787.htm2019-11-05 21:23 80k
[TXT]20160504.0314.47.DM.Tempest.7787.htm2019-11-05 21:23 148k
[TXT]20160504.0325.03.DM.TerraII-fe-BETA046.7787.htm2019-11-05 21:23 104k
[TXT]20160504.0338.20.DM.Toll.7787.htm2019-11-05 21:23 76k
[TXT]20160504.2005.15.DM.ubUrbanSE.7787.htm2019-11-05 21:23 92k
[TXT]20160504.2038.51.DM.VengadorV.7787.htm2019-11-05 21:23 136k
[TXT]20160504.2305.09.DM.VerdanaTE.7787.htm2019-11-05 21:23 108k
[TXT]20160504.2317.45.DM.Viridian-TOURNEY.7787.htm2019-11-05 21:23 64k
[TXT]20160504.2335.27.DM.Words.7787.htm2019-11-05 21:23 68k
[TXT]20160504.2340.46.DM.Xymoron-VI.7787.htm2019-11-05 21:23 76k
[TXT]20160504.2346.12.DM.ZerckTE.7787.htm2019-11-05 21:23 72k
[TXT]20160504.2351.07.DM.AggressiveII.7787.htm2019-11-05 21:23 72k
[TXT]20160504.2355.06.DM.AloneintheDark.7787.htm2019-11-05 21:23 80k
[TXT]20160505.0333.59.DM.AnotherBrickInDeW00T.7787.htm2019-11-05 21:23 144k
[TXT]20160505.0349.23.DM.AnUphillBattle-se.7787.htm2019-11-05 21:23 72k
[TXT]20160505.2307.21.DM.Bakuretsu-se.7787.htm2019-11-05 21:23 80k
[TXT]20160506.0005.15.DM.BoneMill][st.7787.htm2019-11-05 21:23 84k
[TXT]20160506.0015.32.DM.BorneoSE.7787.htm2019-11-05 21:23 104k
[TXT]20160506.2310.29.DM.Bralta.7787.htm2019-11-05 21:23 64k
[TXT]20160507.0101.20.DM.Cityzen-se.7787.htm2019-11-05 21:23 76k
[TXT]20160507.0107.38.DM.Coke.7787.htm2019-11-05 21:23 84k
[TXT]20160507.0113.56.DM.CrypticSE.7787.htm2019-11-05 21:23 76k
[TXT]20160507.0120.02.DM.Curse][-te.7787.htm2019-11-05 21:23 108k
[TXT]20160507.1757.42.DM.DarkMindII.7787.htm2019-11-05 21:23 80k
[TXT]20160508.0434.49.DM.DeckHalf420.7787.htm2019-11-05 21:23 100k
[TXT]20160508.0443.37.DM.Defiant.7787.htm2019-11-05 21:23 84k
[TXT]20160508.0452.09.DM.Draven.7787.htm2019-11-05 21:23 88k
[TXT]20160508.1051.14.DM.EmpoweredIII.7787.htm2019-11-05 21:23 96k
[TXT]20160508.2123.06.DM.Equilibrium-SE.7787.htm2019-11-05 21:23 120k
[TXT]20160508.2226.43.DM.Fear-se.7787.htm2019-11-05 21:23 72k
[TXT]20160509.0444.27.DM.FoomFlood.7787.htm2019-11-05 21:23 92k
[TXT]20160509.1043.16.DM.ForWhomTheBellTollls.7787.htm2019-11-05 21:23 100k
[TXT]20160510.0115.27.DM.Gris-se.7787.htm2019-11-05 21:23 84k
[TXT]20160510.1841.06.DM.Guardia-SE.7787.htm2019-11-05 21:23 68k
[TXT]20160510.2256.58.DM.HellsGateIII.7787.htm2019-11-05 21:23 84k
[TXT]20160510.2307.30.DM.Liandri.7787.htm2019-11-05 21:23 108k
[TXT]20160510.2315.44.DM.LV-426-se.7787.htm2019-11-05 21:24 96k
[TXT]20160510.2324.23.DM.MadScientistsLair-se.7787.htm2019-11-05 21:24 72k
[TXT]20160510.2331.28.DM.Magma-se.7787.htm2019-11-05 21:24 128k
[TXT]20160510.2345.15.DM.MenaceV3-se.7787.htm2019-11-05 21:24 96k
[TXT]20160511.0132.05.DM.MHMsNexusTriple.7787.htm2019-11-05 21:24 80k
[TXT]20160511.1217.33.DM.MiseryTE.7787.htm2019-11-05 21:24 96k
[TXT]20160511.1340.46.DM.Mojo2013.7787.htm2019-11-05 21:24 84k
[TXT]20160512.0103.20.DM.Nexo-se.7787.htm2019-11-05 21:24 88k
[TXT]20160512.0112.42.DM.Olden-se.7787.htm2019-11-05 21:24 68k
[TXT]20160512.0118.30.DM.Outland-ve.7787.htm2019-11-05 21:24 60k
[TXT]20160512.0322.13.DM.Pier41se.7787.htm2019-11-05 21:24 64k
[TXT]20160512.0328.07.DM.Quartet-se.7787.htm2019-11-05 21:24 72k
[TXT]20160512.0338.18.DM.RadStorm-te.7787.htm2019-11-05 21:24 68k
[TXT]20160512.0346.20.DM.Remorc-se.7787.htm2019-11-05 21:24 92k
[TXT]20160512.0359.24.DM.Revenge-fe.7787.htm2019-11-05 21:24 80k
[TXT]20160512.0413.30.DM.RideTheDragon.7787.htm2019-11-05 21:24 84k
[TXT]20160513.1702.51.DM.Serenity.7787.htm2019-11-05 21:24 80k
[TXT]20160513.1902.29.DM.SleepyTownTE.7787.htm2019-11-05 21:24 96k
[TXT]20160514.0257.08.DM.StalwartXL.7787.htm2019-11-05 21:24 64k
[TXT]20160514.0300.24.DM.SweetNothings-SE.7787.htm2019-11-05 21:24 72k
[TXT]20160514.0303.48.DM.Tempest.7787.htm2019-11-05 21:24 116k
[TXT]20160514.0315.22.DM.TerraII-fe-BETA046.7787.htm2019-11-05 21:24 84k
[TXT]20160514.1643.57.DM.Toll.7787.htm2019-11-05 21:24 84k
[TXT]20160514.1836.51.DM.ubUrbanSE.7787.htm2019-11-05 21:24 84k
[TXT]20160514.1842.54.DM.VengadorV.7787.htm2019-11-05 21:24 124k
[TXT]20160514.1853.55.DM.VerdanaTE.7787.htm2019-11-05 21:24 120k
[TXT]20160514.1905.31.DM.Viridian-TOURNEY.7787.htm2019-11-05 21:24 92k
[TXT]20160514.1915.21.DM.Words.7787.htm2019-11-05 21:24 72k
[TXT]20160514.2116.18.DM.Xymoron-VI.7787.htm2019-11-05 21:24 76k
[TXT]20160514.2143.50.DM.ZerckTE.7787.htm2019-11-05 21:24 68k
[TXT]20160514.2148.28.DM.AggressiveII.7787.htm2019-11-05 21:24 140k
[TXT]20160514.2200.09.DM.AloneintheDark.7787.htm2019-11-05 21:24 76k
[TXT]20160514.2208.20.DM.AnotherBrickInDeW00T.7787.htm2019-11-05 21:24 136k
[TXT]20160515.0116.03.DM.AnUphillBattle-se.7787.htm2019-11-05 21:24 72k
[TXT]20160515.0126.14.DM.Bakuretsu-se.7787.htm2019-11-05 21:24 80k
[TXT]20160515.0133.08.DM.BoneMill][st.7787.htm2019-11-05 21:24 68k
[TXT]20160515.0139.27.DM.BorneoSE.7787.htm2019-11-05 21:24 96k
[TXT]20160515.0145.31.DM.Bralta.7787.htm2019-11-05 21:24 60k
[TXT]20160515.0150.12.DM.Cityzen-se.7787.htm2019-11-05 21:24 104k
[TXT]20160515.0347.50.DM.Coke.7787.htm2019-11-05 21:24 92k
[TXT]20160515.2047.28.DM.CrypticSE.7787.htm2019-11-05 21:24 76k
[TXT]20160515.2054.00.DM.Curse][-te.7787.htm2019-11-05 21:24 84k
[TXT]20160516.0555.22.DM.DarkMindII.7787.htm2019-11-05 21:24 72k
[TXT]20160516.0603.55.DM.DeckHalf420.7787.htm2019-11-05 21:24 100k
[TXT]20160516.0837.57.DM.Defiant.7787.htm2019-11-05 21:24 88k
[TXT]20160516.1517.34.DM.Draven.7787.htm2019-11-05 21:24 76k
[TXT]20160516.1615.16.DM.EmpoweredIII.7787.htm2019-11-05 21:24 108k
[TXT]20160516.1625.07.DM.Equilibrium-SE.7787.htm2019-11-05 21:24 76k
[TXT]20160516.1632.22.DM.Fear-se.7787.htm2019-11-05 21:24 72k
[TXT]20160516.1638.58.DM.FoomFlood.7787.htm2019-11-05 21:24 84k
[TXT]20160516.1650.07.DM.ForWhomTheBellTollls.7787.htm2019-11-05 21:24 100k
[TXT]20160516.1701.54.DM.Gris-se.7787.htm2019-11-05 21:24 104k
[TXT]20160516.1711.34.DM.Guardia-SE.7787.htm2019-11-05 21:24 96k
[TXT]20160516.1732.56.DM.HellsGateIII.7787.htm2019-11-05 21:24 148k
[TXT]20160516.2037.00.DM.Liandri.7787.htm2019-11-05 21:24 88k
[TXT]20160516.2351.48.DM.LV-426-se.7787.htm2019-11-05 21:24 64k
[TXT]20160516.2357.30.DM.MadScientistsLair-se.7787.htm2019-11-05 21:24 64k
[TXT]20160517.0002.06.DM.Magma-se.7787.htm2019-11-05 21:24 64k
[TXT]20160517.0006.26.DM.MenaceV3-se.7787.htm2019-11-05 21:24 72k
[TXT]20160517.0010.16.DM.MHMsNexusTriple.7787.htm2019-11-05 21:24 68k
[TXT]20160517.0106.48.DM.MiseryTE.7787.htm2019-11-05 21:24 108k
[TXT]20160517.0120.09.DM.Mojo2013.7787.htm2019-11-05 21:24 84k
[TXT]20160517.0127.57.DM.Nexo-se.7787.htm2019-11-05 21:24 80k
[TXT]20160517.0136.37.DM.Olden-se.7787.htm2019-11-05 21:24 92k
[TXT]20160517.0148.29.DM.Outland-ve.7787.htm2019-11-05 21:24 84k
[TXT]20160517.0318.42.DM.Pier41se.7787.htm2019-11-05 21:24 68k
[TXT]20160517.0354.09.DM.Quartet-se.7787.htm2019-11-05 21:24 72k
[TXT]20160518.0454.35.DM.RadStorm-te.7787.htm2019-11-05 21:24 100k
[TXT]20160518.1824.51.DM.Remorc-se.7787.htm2019-11-05 21:24 92k
[TXT]20160518.1833.53.DM.Revenge-fe.7787.htm2019-11-05 21:24 84k
[TXT]20160518.1843.54.DM.RideTheDragon.7787.htm2019-11-05 21:24 68k
[TXT]20160518.1851.09.DM.Serenity.7787.htm2019-11-05 21:24 60k
[TXT]20160518.1856.56.DM.SleepyTownTE.7787.htm2019-11-05 21:24 92k
[TXT]20160518.2225.19.DM.StalwartXL.7787.htm2019-11-05 21:24 68k
[TXT]20160518.2229.00.DM.SweetNothings-SE.7787.htm2019-11-05 21:24 76k
[TXT]20160518.2234.17.DM.Tempest.7787.htm2019-11-05 21:24 88k
[TXT]20160518.2239.57.DM.TerraII-fe-BETA046.7787.htm2019-11-05 21:24 80k
[TXT]20160518.2246.23.DM.Toll.7787.htm2019-11-05 21:24 104k
[TXT]20160519.0003.27.DM.ubUrbanSE.7787.htm2019-11-05 21:24 128k
[TXT]20160519.2309.58.DM.VengadorV.7787.htm2019-11-05 21:24 100k
[TXT]20160519.2315.37.DM.VerdanaTE.7787.htm2019-11-05 21:24 84k
[TXT]20160519.2326.36.DM.Viridian-TOURNEY.7787.htm2019-11-05 21:24 84k
[TXT]20160519.2336.24.DM.Words.7787.htm2019-11-05 21:24 124k
[TXT]20160519.2348.40.DM.Xymoron-VI.7787.htm2019-11-05 21:24 80k
[TXT]20160520.1621.36.DM.ZerckTE.7787.htm2019-11-05 21:24 76k
[TXT]20160521.0413.25.DM.AggressiveII.7787.htm2019-11-05 21:24 116k
[TXT]20160521.0424.22.DM.AloneintheDark.7787.htm2019-11-05 21:24 92k
[TXT]20160521.0434.18.DM.AnotherBrickInDeW00T.7787.htm2019-11-05 21:24 120k
[TXT]20160521.0441.35.DM.AnUphillBattle-se.7787.htm2019-11-05 21:24 88k
[TXT]20160521.0451.46.DM.Bakuretsu-se.7787.htm2019-11-05 21:24 84k
[TXT]20160521.0459.12.DM.BoneMill][st.7787.htm2019-11-05 21:24 72k
[TXT]20160521.0506.11.DM.BorneoSE.7787.htm2019-11-05 21:24 132k
[TXT]20160521.0514.58.DM.Bralta.7787.htm2019-11-05 21:24 84k
[TXT]20160521.0525.11.DM.Cityzen-se.7787.htm2019-11-05 21:24 76k
[TXT]20160521.1819.09.DM.Coke.7787.htm2019-11-05 21:24 76k
[TXT]20160521.1824.07.DM.CrypticSE.7787.htm2019-11-05 21:24 72k
[TXT]20160521.1828.35.DM.Curse][-te.7787.htm2019-11-05 21:24 108k
[TXT]20160521.2043.32.DM.DarkMindII.7787.htm2019-11-05 21:24 88k
[TXT]20160521.2207.57.DM.DeckHalf420.7787.htm2019-11-05 21:24 96k
[TXT]20160522.1532.11.DM.Defiant.7787.htm2019-11-05 21:24 68k
[TXT]20160522.1539.17.DM.Draven.7787.htm2019-11-05 21:24 68k
[TXT]20160522.1545.08.DM.EmpoweredIII.7787.htm2019-11-05 21:24 80k
[TXT]20160522.1652.45.DM.Equilibrium-SE.7787.htm2019-11-05 21:24 76k
[TXT]20160522.1659.00.DM.Fear-se.7787.htm2019-11-05 21:24 68k
[TXT]20160522.1704.49.DM.FoomFlood.7787.htm2019-11-05 21:25 76k
[TXT]20160522.1709.47.DM.ForWhomTheBellTollls.7787.htm2019-11-05 21:25 76k
[TXT]20160522.1715.55.DM.Gris-se.7787.htm2019-11-05 21:25 72k
[TXT]20160522.2129.50.DM.Guardia-SE.7787.htm2019-11-05 21:25 64k
[TXT]20160522.2135.03.DM.HellsGateIII.7787.htm2019-11-05 21:25 88k
[TXT]20160522.2144.58.DM.Liandri.7787.htm2019-11-05 21:25 104k
[TXT]20160522.2349.05.DM.LV-426-se.7787.htm2019-11-05 21:25 80k
[TXT]20160523.0001.05.DM.MadScientistsLair-se.7787.htm2019-11-05 21:25 64k
[TXT]20160523.0218.30.DM.Magma-se.7787.htm2019-11-05 21:25 64k
[TXT]20160523.0224.00.DM.MenaceV3-se.7787.htm2019-11-05 21:25 80k
[TXT]20160523.1931.46.DM.MHMsNexusTriple.7787.htm2019-11-05 21:25 68k
[TXT]20160523.1937.05.DM.MiseryTE.7787.htm2019-11-05 21:25 80k
[TXT]20160523.1943.39.DM.Mojo2013.7787.htm2019-11-05 21:25 100k
[TXT]20160523.1959.48.DM.Nexo-se.7787.htm2019-11-05 21:25 80k
[TXT]20160523.2312.10.DM.Olden-se.7787.htm2019-11-05 21:25 68k
[TXT]20160523.2318.38.DM.Outland-ve.7787.htm2019-11-05 21:25 64k
[TXT]20160524.0244.58.DM.Pier41se.7787.htm2019-11-05 21:25 72k
[TXT]20160524.0250.09.DM.Quartet-se.7787.htm2019-11-05 21:25 72k
[TXT]20160524.0257.29.DM.RadStorm-te.7787.htm2019-11-05 21:25 64k
[TXT]20160524.0302.30.DM.Remorc-se.7787.htm2019-11-05 21:25 76k
[TXT]20160524.0308.53.DM.Revenge-fe.7787.htm2019-11-05 21:25 72k
[TXT]20160524.0316.04.DM.RideTheDragon.7787.htm2019-11-05 21:25 68k
[TXT]20160524.0322.59.DM.Serenity.7787.htm2019-11-05 21:25 60k
[TXT]20160524.0328.55.DM.SleepyTownTE.7787.htm2019-11-05 21:25 100k
[TXT]20160524.0335.21.DM.StalwartXL.7787.htm2019-11-05 21:25 68k
[TXT]20160524.0341.12.DM.SweetNothings-SE.7787.htm2019-11-05 21:25 76k
[TXT]20160524.0433.59.DM.Tempest.7787.htm2019-11-05 21:25 92k
[TXT]20160524.0441.54.DM.TerraII-fe-BETA046.7787.htm2019-11-05 21:25 92k
[TXT]20160524.0457.22.DM.Toll.7787.htm2019-11-05 21:25 64k
[TXT]20160524.0503.04.DM.ubUrbanSE.7787.htm2019-11-05 21:25 96k
[TXT]20160525.0104.15.DM.VengadorV.7787.htm2019-11-05 21:25 116k
[TXT]20160525.0115.59.DM.VerdanaTE.7787.htm2019-11-05 21:25 84k
[TXT]20160525.0125.47.DM.Viridian-TOURNEY.7787.htm2019-11-05 21:25 96k
[TXT]20160525.0136.01.DM.Words.7787.htm2019-11-05 21:25 96k
[TXT]20160525.0157.53.DM.Xymoron-VI.7787.htm2019-11-05 21:25 84k
[TXT]20160525.0206.45.DM.ZerckTE.7787.htm2019-11-05 21:25 76k
[TXT]20160525.0214.30.DM.AggressiveII.7787.htm2019-11-05 21:25 104k
[TXT]20160525.0345.31.DM.AloneintheDark.7787.htm2019-11-05 21:25 72k
[TXT]20160525.0955.05.DM.AnotherBrickInDeW00T.7787.htm2019-11-05 21:25 100k
[TXT]20160525.1637.29.DM.AnUphillBattle-se.7787.htm2019-11-05 21:25 68k
[TXT]20160525.1643.59.DM.Bakuretsu-se.7787.htm2019-11-05 21:25 88k
[TXT]20160525.1651.04.DM.BoneMill][st.7787.htm2019-11-05 21:25 64k
[TXT]20160525.1656.49.DM.BorneoSE.7787.htm2019-11-05 21:25 100k
[TXT]20160525.1703.54.DM.Bralta.7787.htm2019-11-05 21:25 64k
[TXT]20160525.1709.50.DM.Cityzen-se.7787.htm2019-11-05 21:25 80k
[TXT]20160525.1715.25.DM.Coke.7787.htm2019-11-05 21:25 120k
[TXT]20160526.0112.29.DM.CrypticSE.7787.htm2019-11-05 21:25 76k
[TXT]20160526.0155.21.DM.Curse][-te.7787.htm2019-11-05 21:25 84k
[TXT]20160526.0203.23.DM.DarkMindII.7787.htm2019-11-05 21:25 96k
[TXT]20160526.0217.30.DM.DeckHalf420.7787.htm2019-11-05 21:25 104k
[TXT]20160526.0226.40.DM.Defiant.7787.htm2019-11-05 21:25 68k
[TXT]20160526.0235.01.DM.Draven.7787.htm2019-11-05 21:25 92k
[TXT]20160526.0248.16.DM.EmpoweredIII.7787.htm2019-11-05 21:25 84k
[TXT]20160526.0257.41.DM.Equilibrium-SE.7787.htm2019-11-05 21:25 72k
[TXT]20160526.1229.07.DM.Fear-se.7787.htm2019-11-05 21:25 68k
[TXT]20160526.1235.02.DM.FoomFlood.7787.htm2019-11-05 21:25 104k
[TXT]20160526.1318.15.DM.ForWhomTheBellTollls.7787.htm2019-11-05 21:25 80k
[TXT]20160526.1808.56.DM.Gris-se.7787.htm2019-11-05 21:25 100k
[TXT]20160526.1820.48.DM.Guardia-SE.7787.htm2019-11-05 21:25 80k
[TXT]20160526.1929.27.DM.HellsGateIII.7787.htm2019-11-05 21:25 120k
[TXT]20160526.1941.15.DM.Liandri.7787.htm2019-11-05 21:25 88k
[TXT]20160526.1947.47.DM.LV-426-se.7787.htm2019-11-05 21:25 60k
[TXT]20160526.1951.48.DM.MadScientistsLair-se.7787.htm2019-11-05 21:25 64k
[TXT]20160526.1956.46.DM.Magma-se.7787.htm2019-11-05 21:25 64k
[TXT]20160526.2002.28.DM.MenaceV3-se.7787.htm2019-11-05 21:25 72k
[TXT]20160526.2008.13.DM.MHMsNexusTriple.7787.htm2019-11-05 21:25 64k
[TXT]20160526.2047.32.DM.MiseryTE.7787.htm2019-11-05 21:25 84k
[TXT]20160526.2056.33.DM.Mojo2013.7787.htm2019-11-05 21:25 88k
[TXT]20160526.2107.02.DM.Nexo-se.7787.htm2019-11-05 21:25 76k
[TXT]20160526.2113.28.DM.Olden-se.7787.htm2019-11-05 21:25 80k
[TXT]20160526.2121.46.DM.Outland-ve.7787.htm2019-11-05 21:25 68k
[TXT]20160526.2219.56.DM.Pier41se.7787.htm2019-11-05 21:25 64k
[TXT]20160526.2226.37.DM.Quartet-se.7787.htm2019-11-05 21:25 72k
[TXT]20160526.2234.49.DM.RadStorm-te.7787.htm2019-11-05 21:25 64k
[TXT]20160526.2240.16.DM.Remorc-se.7787.htm2019-11-05 21:25 76k
[TXT]20160526.2246.54.DM.Revenge-fe.7787.htm2019-11-05 21:25 68k
[TXT]20160527.0050.01.DM.RideTheDragon.7787.htm2019-11-05 21:25 68k
[TXT]20160527.0056.04.DM.Serenity.7787.htm2019-11-05 21:25 76k
[TXT]20160527.0103.31.DM.SleepyTownTE.7787.htm2019-11-05 21:25 108k
[TXT]20160527.0108.07.DM.StalwartXL.7787.htm2019-11-05 21:25 68k
[TXT]20160527.0111.50.DM.SweetNothings-SE.7787.htm2019-11-05 21:25 76k
[TXT]20160527.0117.43.DM.Tempest.7787.htm2019-11-05 21:25 88k
[TXT]20160527.0124.01.DM.TerraII-fe-BETA046.7787.htm2019-11-05 21:25 100k
[TXT]20160527.0133.01.DM.Toll.7787.htm2019-11-05 21:25 72k
[TXT]20160527.0140.40.DM.ubUrbanSE.7787.htm2019-11-05 21:25 84k
[TXT]20160527.0148.43.DM.VengadorV.7787.htm2019-11-05 21:25 92k
[TXT]20160527.0155.51.DM.VerdanaTE.7787.htm2019-11-05 21:25 76k
[TXT]20160527.0207.19.DM.Viridian-TOURNEY.7787.htm2019-11-05 21:25 64k
[TXT]20160527.0213.00.DM.Words.7787.htm2019-11-05 21:25 68k
[TXT]20160527.0218.20.DM.Xymoron-VI.7787.htm2019-11-05 21:25 76k
[TXT]20160527.0223.27.DM.ZerckTE.7787.htm2019-11-05 21:25 72k
[TXT]20160527.0257.17.DM.AggressiveII.7787.htm2019-11-05 21:25 88k
[TXT]20160527.0306.21.DM.AloneintheDark.7787.htm2019-11-05 21:25 76k
[TXT]20160527.0313.35.DM.AnotherBrickInDeW00T.7787.htm2019-11-05 21:25 100k
[TXT]20160527.0319.15.DM.AnUphillBattle-se.7787.htm2019-11-05 21:25 64k
[TXT]20160527.0325.01.DM.Bakuretsu-se.7787.htm2019-11-05 21:25 72k
[TXT]20160527.0329.48.DM.BoneMill][st.7787.htm2019-11-05 21:25 64k
[TXT]20160527.0342.06.DM.BorneoSE.7787.htm2019-11-05 21:25 108k
[TXT]20160527.0350.41.DM.Bralta.7787.htm2019-11-05 21:25 64k
[TXT]20160527.0356.46.DM.Cityzen-se.7787.htm2019-11-05 21:25 80k
[TXT]20160527.0403.21.DM.Coke.7787.htm2019-11-05 21:25 80k
[TXT]20160527.0408.48.DM.CrypticSE.7787.htm2019-11-05 21:25 76k
[TXT]20160527.0415.03.DM.Curse][-te.7787.htm2019-11-05 21:25 84k
[TXT]20160527.0422.38.DM.DarkMindII.7787.htm2019-11-05 21:25 68k
[TXT]20160527.0428.29.DM.DeckHalf420.7787.htm2019-11-05 21:25 100k
[TXT]20160527.0436.47.DM.Defiant.7787.htm2019-11-05 21:25 68k
[TXT]20160527.0443.29.DM.Draven.7787.htm2019-11-05 21:25 64k
[TXT]20160527.0449.02.DM.EmpoweredIII.7787.htm2019-11-05 21:25 80k
[TXT]20160527.0456.22.DM.Equilibrium-SE.7787.htm2019-11-05 21:25 80k
[TXT]20160527.0503.05.DM.Fear-se.7787.htm2019-11-05 21:25 80k
[TXT]20160528.0722.41.DM.FoomFlood.7787.htm2019-11-05 21:25 72k
[TXT]20160528.0751.01.DM.ForWhomTheBellTollls.7787.htm2019-11-05 21:25 84k
[TXT]20160528.0851.54.DM.Gris-se.7787.htm2019-11-05 21:25 64k
[TXT]20160528.0857.37.DM.Guardia-SE.7787.htm2019-11-05 21:25 64k
[TXT]20160528.0903.25.DM.HellsGateIII.7787.htm2019-11-05 21:25 104k
[TXT]20160528.0913.02.DM.Liandri.7787.htm2019-11-05 21:26 132k
[TXT]20160528.0927.43.DM.LV-426-se.7787.htm2019-11-05 21:26 64k
[TXT]20160528.0932.41.DM.MadScientistsLair-se.7787.htm2019-11-05 21:26 80k
[TXT]20160528.1021.37.DM.Magma-se.7787.htm2019-11-05 21:26 68k
[TXT]20160528.1026.23.DM.MenaceV3-se.7787.htm2019-11-05 21:26 108k
[TXT]20160528.1033.06.DM.MHMsNexusTriple.7787.htm2019-11-05 21:26 64k
[TXT]20160528.1037.51.DM.MiseryTE.7787.htm2019-11-05 21:26 76k
[TXT]20160528.1043.37.DM.Mojo2013.7787.htm2019-11-05 21:26 80k
[TXT]20160528.1050.43.DM.Nexo-se.7787.htm2019-11-05 21:26 76k
[TXT]20160528.1057.57.DM.Olden-se.7787.htm2019-11-05 21:26 124k
[TXT]20160528.1109.01.DM.Outland-ve.7787.htm2019-11-05 21:26 64k
[TXT]20160528.1113.52.DM.Pier41se.7787.htm2019-11-05 21:26 60k
[TXT]20160528.1118.59.DM.Quartet-se.7787.htm2019-11-05 21:26 104k
[TXT]20160528.1126.42.DM.RadStorm-te.7787.htm2019-11-05 21:26 84k
[TXT]20160528.1136.36.DM.Remorc-se.7787.htm2019-11-05 21:26 92k
[TXT]20160528.1155.07.DM.Revenge-fe.7787.htm2019-11-05 21:26 88k
[TXT]20160528.1546.09.DM.RideTheDragon.7787.htm2019-11-05 21:26 64k
[TXT]20160528.1550.48.DM.Serenity.7787.htm2019-11-05 21:26 64k
[TXT]20160528.1557.23.DM.SleepyTownTE.7787.htm2019-11-05 21:26 108k
[TXT]20160528.1603.10.DM.StalwartXL.7787.htm2019-11-05 21:26 80k
[TXT]20160528.1609.00.DM.SweetNothings-SE.7787.htm2019-11-05 21:26 84k
[TXT]20160528.1616.22.DM.Tempest.7787.htm2019-11-05 21:26 96k
[TXT]20160528.1624.29.DM.TerraII-fe-BETA046.7787.htm2019-11-05 21:26 92k
[TXT]20160528.1631.41.DM.Toll.7787.htm2019-11-05 21:26 68k
[TXT]20160528.1642.23.DM.ubUrbanSE.7787.htm2019-11-05 21:26 72k
[TXT]20160528.1648.07.DM.VengadorV.7787.htm2019-11-05 21:26 88k
[TXT]20160528.1658.47.DM.VerdanaTE.7787.htm2019-11-05 21:26 72k
[TXT]20160528.1705.08.DM.Viridian-TOURNEY.7787.htm2019-11-05 21:26 64k
[TXT]20160528.1710.52.DM.Words.7787.htm2019-11-05 21:26 72k
[TXT]20160528.1717.53.DM.Xymoron-VI.7787.htm2019-11-05 21:26 72k
[TXT]20160528.1722.08.DM.ZerckTE.7787.htm2019-11-05 21:26 76k
[TXT]20160528.1728.54.DM.AggressiveII.7787.htm2019-11-05 21:26 80k
[TXT]20160528.1735.24.DM.AloneintheDark.7787.htm2019-11-05 21:26 96k
[TXT]20160528.1825.49.DM.AnotherBrickInDeW00T.7787.htm2019-11-05 21:26 132k
[TXT]20160529.1649.27.DM.AnUphillBattle-se.7787.htm2019-11-05 21:26 64k
[TXT]20160529.1928.43.DM.Bakuretsu-se.7787.htm2019-11-05 21:26 76k
[TXT]20160529.1935.01.DM.BoneMill][st.7787.htm2019-11-05 21:26 68k
[TXT]20160529.1941.32.DM.BorneoSE.7787.htm2019-11-05 21:26 116k
[TXT]20160529.1952.01.DM.Bralta.7787.htm2019-11-05 21:26 68k
[TXT]20160529.2000.08.DM.Cityzen-se.7787.htm2019-11-05 21:26 120k
[TXT]20160529.2012.10.DM.Coke.7787.htm2019-11-05 21:26 108k
[TXT]20160529.2024.54.DM.CrypticSE.7787.htm2019-11-05 21:26 88k
[TXT]20160529.2029.51.DM.Curse][-te.7787.htm2019-11-05 21:26 80k
[TXT]20160529.2035.02.DM.DarkMindII.7787.htm2019-11-05 21:26 72k
[TXT]20160529.2041.58.DM.DeckHalf420.7787.htm2019-11-05 21:26 92k
[TXT]20160529.2046.25.DM.Defiant.7787.htm2019-11-05 21:26 68k
[TXT]20160529.2053.01.DM.Draven.7787.htm2019-11-05 21:26 96k
[TXT]20160529.2101.29.DM.EmpoweredIII.7787.htm2019-11-05 21:26 96k
[TXT]20160529.2111.00.DM.Equilibrium-SE.7787.htm2019-11-05 21:26 84k
[TXT]20160529.2120.46.DM.Fear-se.7787.htm2019-11-05 21:26 80k
[TXT]20160529.2127.58.DM.FoomFlood.7787.htm2019-11-05 21:26 80k
[TXT]20160529.2135.47.DM.ForWhomTheBellTollls.7787.htm2019-11-05 21:26 88k
[TXT]20160529.2144.54.DM.Gris-se.7787.htm2019-11-05 21:26 76k
[TXT]20160529.2150.44.DM.Guardia-SE.7787.htm2019-11-05 21:26 72k
[TXT]20160529.2253.35.DM.HellsGateIII.7787.htm2019-11-05 21:26 80k
[TXT]20160530.0011.39.DM.Jewel.7787.htm2019-11-05 21:26 84k
[TXT]20160530.0017.59.DM.Liandri.7787.htm2019-11-05 21:26 88k
[TXT]20160530.0024.28.DM.Lostlands-se.7787.htm2019-11-05 21:26 72k
[TXT]20160530.0032.16.DM.Lyus.7787.htm2019-11-05 21:26 104k
[TXT]20160530.0037.06.DM.MadScientistsLair-se.7787.htm2019-11-05 21:26 72k
[TXT]20160530.0044.23.DM.Magma-se.7787.htm2019-11-05 21:26 76k
[TXT]20160530.0052.47.DM.MenaceV3-se.7787.htm2019-11-05 21:26 80k
[TXT]20160530.0059.52.DM.Mojo2013.7787.htm2019-11-05 21:26 92k
[TXT]20160530.0110.33.DM.MoonbaseSE.7787.htm2019-11-05 21:26 112k
[TXT]20160530.0117.12.DM.Olden-se.7787.htm2019-11-05 21:26 72k
[TXT]20160530.0125.02.DM.Outland-ve.7787.htm2019-11-05 21:26 68k
[TXT]20160530.0131.22.DM.Pier41se.7787.htm2019-11-05 21:26 72k
[TXT]20160530.0139.02.DM.Quartet-se.7787.htm2019-11-05 21:26 72k
[TXT]20160530.0147.59.DM.RadStorm-te.7787.htm2019-11-05 21:26 64k
[TXT]20160530.0153.53.DM.RealWorldGoneBad.7787.htm2019-11-05 21:26 76k
[TXT]20160530.0159.25.DM.Revenge-fe.7787.htm2019-11-05 21:26 76k
[TXT]20160530.0209.19.DM.RideTheDragon.7787.htm2019-11-05 21:26 68k
[TXT]20160530.0215.33.DM.Serenity.7787.htm2019-11-05 21:26 64k
[TXT]20160530.0332.20.DM.StalwartXL.7787.htm2019-11-05 21:26 72k
[TXT]20160530.0337.53.DM.StreetFE.7787.htm2019-11-05 21:26 80k
[TXT]20160530.0343.52.DM.SweetNothings-SE.7787.htm2019-11-05 21:26 76k
[TXT]20160530.0349.07.DM.TerraII-fe-BETA046.7787.htm2019-11-05 21:26 88k
[TXT]20160530.0400.33.DM.Toll.7787.htm2019-11-05 21:26 68k
[TXT]20160530.0406.50.DM.UnitIII.7787.htm2019-11-05 21:26 128k
[TXT]20160530.0415.50.DM.VengadorV.7787.htm2019-11-05 21:26 88k
[TXT]20160530.0421.50.DM.VerdanaTE.7787.htm2019-11-05 21:26 76k
[TXT]20160530.0428.35.DM.Viridian-TOURNEY.7787.htm2019-11-05 21:26 64k
[TXT]20160530.0433.38.DM.Words.7787.htm2019-11-05 21:26 68k
[TXT]20160530.0438.45.DM.Xymoron-VI.7787.htm2019-11-05 21:26 92k
[TXT]20160530.0449.03.DM.Z-Axis-Inspector.7787.htm2019-11-05 21:26 72k
[TXT]20160530.0456.18.DM.AggressiveII.7787.htm2019-11-05 21:26 92k
[TXT]20160530.0505.58.DM.Agony.7787.htm2019-11-05 21:26 112k
[TXT]20160530.0514.27.DM.AltitudeB.7787.htm2019-11-05 21:26 120k
[TXT]20160530.1453.31.DM.AnotherBrickInDeW00T.7787.htm2019-11-05 21:26 144k
[TXT]20160530.1508.10.DM.Avghazer.7787.htm2019-11-05 21:26 104k
[TXT]20160530.1518.46.DM.Bakuretsu-se.7787.htm2019-11-05 21:26 80k
[TXT]20160530.1613.35.DM.BoneMill][st.7787.htm2019-11-05 21:26 76k
[TXT]20160530.1619.50.DM.BorneoSE.7787.htm2019-11-05 21:26 124k
[TXT]20160530.1754.50.DM.Cityzen-se.7787.htm2019-11-05 21:26 104k
[TXT]20160530.1825.05.DM.Coke.7787.htm2019-11-05 21:26 104k
[TXT]20160531.0057.42.DM.Compulsive.7787.htm2019-11-05 21:26 80k
[TXT]20160531.0649.32.DM.CrypticSE.7787.htm2019-11-05 21:26 72k
[TXT]20160531.1144.25.DM.Curse][-te.7787.htm2019-11-05 21:26 84k
[TXT]20160531.1152.41.DM.DarkMindII.7787.htm2019-11-05 21:26 64k
[TXT]20160531.1157.20.DM.Defiant.7787.htm2019-11-05 21:26 64k
[TXT]20160531.1202.55.DM.Draven.7787.htm2019-11-05 21:26 68k
[TXT]20160531.1208.57.DM.EmpoweredIII.7787.htm2019-11-05 21:26 80k
[TXT]20160531.1216.39.DM.Equilibrium-SE.7787.htm2019-11-05 21:26 76k
[TXT]20160531.1222.33.DM.Fade-se.7787.htm2019-11-05 21:27 80k
[TXT]20160531.1229.59.DM.Fear-se.7787.htm2019-11-05 21:27 68k
[TXT]20160531.1236.20.DM.Foom200.7787.htm2019-11-05 21:27 116k
[TXT]20160531.1243.50.DM.GatakaFE.7787.htm2019-11-05 21:27 96k
[TXT]20160531.1254.18.DM.GaugeLoathing.7787.htm2019-11-05 21:27 84k
[TXT]20160531.1316.44.DM.Gris-se.7787.htm2019-11-05 21:27 76k
[TXT]20160531.1323.20.DM.HellsGateIII.7787.htm2019-11-05 21:27 84k
[TXT]20160531.1332.50.DM.Jewel.7787.htm2019-11-05 21:27 72k
[TXT]20160531.1338.54.DM.Liandri.7787.htm2019-11-05 21:27 88k
[TXT]20160531.1345.52.DM.Lostlands-se.7787.htm2019-11-05 21:27 68k
[TXT]20160531.1351.54.DM.Lyus.7787.htm2019-11-05 21:27 124k
[TXT]20160531.1409.31.DM.MadScientistsLair-se.7787.htm2019-11-05 21:27 64k
[TXT]20160531.2128.12.DM.Magma-se.7787.htm2019-11-05 21:27 64k
[TXT]20160531.2133.32.DM.MenaceV3-se.7787.htm2019-11-05 21:27 72k
[TXT]20160531.2139.09.DM.Mojo2013.7787.htm2019-11-05 21:27 84k
Proudly Served by LiteSpeed Web Server at www.birdieman.com Port 80